Cloud_Cover
4 2 25 100 73 21 48 95 64 4 5 6 5 5 5 2 0 0 0 54 74 46 32 100 100 91 87 96 39 51 66 100 98 100 100 100 31 25 6 5 1 10 0 0
5 4 0 5 57 100 100 22 57 6 5 5 86 5 49 5 5 0 0 6 70 100 53 6 68 100 97 92 98 58 61 49 95 100 100 100 49 5 5 7 11 31 25 0
5 5 2 1 5 12 41 86 100 91 14 88 5 5 46 99 6 0 0 0 6 17 98 37 5 84 66 60 5 36 12 7 50 100 100 100 100 52 8 8 3 21 28 9
5 3 5 30 5 3 18 62 52 66 62 6 2 5 5 70 5 5 2 1 5 5 6 21 5 18 87 90 35 14 9 2 5 25 94 100 100 46 12 100 6 13 42 28
6 24 9 5 95 97 11 23 21 49 77 24 6 24 5 19 6 5 78 12 2 5 0 10 4 5 0 51 100 100 100 82 51 51 77 92 100 96 97 94 17 5 0 21
5 43 76 13 7 15 74 12 5 86 94 79 6 48 89 5 5 68 80 27 97 3 0 0 10 5 5 2 3 13 35 51 79 96 100 100 99 100 100 100 100 68 54 41
5 72 36 63 74 14 79 30 5 10 23 43 55 60 98 48 5 5 80 14 27 28 3 0 0 0 0 0 0 17 48 100 95 76 67 54 71 96 100 91 93 100 98 69
56 98 83 35 96 60 26 6 4 5 20 95 99 28 69 96 5 4 5 60 83 74 95 5 0 0 0 0 0 33 94 81 64 51 20 35 90 99 100 93 100 92 100 100
2 17 100 100 81 5 19 99 49 54 5 5 76 41 5 93 53 5 5 5 6 35 55 12 5 4 0 0 0 48 45 46 46 42 33 30 41 64 62 100 100 100 100 100
6 5 5 5 24 94 88 25 4 84 96 8 10 12 6 70 91 6 3 98 25 24 82 39 10 5 0 0 0 0 4 30 37 17 32 35 32 100 100 100 100 100 100 100
5 5 0 5 17 5 37 15 5 5 45 100 10 98 59 88 65 9 79 100 12 20 81 51 47 30 5 0 0 0 0 58 48 17 22 42 84 97 100 100 100 100 100 100
8 5 7 100 100 32 5 5 6 5 92 100 7 13 65 73 56 20 84 100 100 100 94 100 100 84 5 0 2 0 4 100 100 95 82 55 45 92 100 100 100 100 100 87
100 88 54 98 100 99 76 5 100 100 75 100 98 5 88 52 65 30 44 91 100 100 100 100 100 100 19 5 1 5 5 80 87 62 100 100 100 85 98 96 100 100 100 100
9 44 100 100 100 100 98 100 100 100 100 62 5 5 5 46 24 22 69 65 92 100 100 100 100 100 38 97 88 55 54 67 68 92 100 99 100 86 75 98 100 100 100 100
100 100 100 100 100 100 100 100 100 100 95 95 100 64 15 39 11 18 29 56 100 100 100 100 100 100 100 100 100 22 5 2 80 59 100 100 81 85 85 99 100 91 96 86
55 99 100 100 100 100 100 100 100 100 100 100 100 71 81 6 5 7 6 74 100 100 100 100 100 100 100 100 92 48 7 33 9 25 82 100 100 100 100 100 100 89 55 67
100 100 100 100 100 100 100 100 100 100 100 99 100 77 5 5 6 91 100 100 100 100 100 100 100 100 100 100 100 100 7 5 5 71 100 100 100 100 100 86 77 69 94 100
100 100 100 100 100 100 100 100 100 100 100 93 100 70 22 5 96 100 100 100 100 100 100 100 100 100 100 100 100 41 3 0 4 53 81 91 94 100 98 90 86 86 100 96
100 100 98 99 94 46 43 19 24 18 79 25 24 59 76 50 100 100 100 100 100 100 100 100 100 100 100 100 99 11 5 0 6 26 56 54 74 89 91 59 69 83 76 74
100 100 75 67 100 96 59 7 5 11 20 100 99 75 80 98 100 100 100 100 100 100 100 76 100 100 56 38 59 18 5 5 5 8 8 12 5 5 0 1 12 61 10 0
100 100 100 72 13 5 5 5 5 23 28 91 100 100 97 71 100 100 100 100 100 100 100 100 100 100 99 95 5 2 5 5 5 6 8 3 0 0 5 5 1 5 2 0
100 100 92 100 100 100 100 82 96 5 5 55 100 100 100 100 100 100 100 100 100 100 100 100 100 100 100 30 6 5 5 5 23 80 8 4 1 0 4 2 5 5 5 4
88 100 100 100 100 100 100 100 100 89 16 95 98 100 100 100 100 100 100 100 100 100 100 100 100 100 100 100 88 64 71 41 84 51 12 5 5 5 5 5 16 5 5 1
91 100 100 100 100 100 100 100 100 99 100 72 100 100 100 100 100 100 100 100 100 100 100 100 100 90 68 86 48 23 52 88 31 39 5 5 5 27 50 55 10 5 3 8
91 100 100 100 100 100 100 100 83 98 92 87 100 100 95 100 100 100 100 100 100 100 100 100 100 100 100 96 100 100 100 72 6 12 25 24 99 100 98 97 10 26 7 5
93 100 64 100 100 100 99 77 100 100 100 96 73 100 100 100 100 84 100 100 100 100 100 98 100 100 100 100 100 56 7 5 7 29 71 100 96 24 50 93 88 79 36 11
100 97 69 100 100 100 100 86 100 100 99 100 100 98 66 100 100 100 100 100 100 100 100 100 100 100 98 98 90 95 40 48 29 8 5 5 14 73 94 100 100 100 80 6